sat.trackr.live / text

‹ back to catalog

UNKNOWN

NORAD 81605

UNKNOWN UNKNOWN UNKNOWN

§ Identity

Operator
Country
Launch date
Launch site
Launch vehicle
Mass (kg)
RCS (m²)

External: N2YO · Heavens-Above

§ Orbital elements

Epoch: 2026-09-17T01:49:52.197312Z

Period
112.35 min
Inclination
56.4309°
Eccentricity
0.0120215
Mean motion
12.81687789 rev/d
Perigee alt
1,242.0 km
Apogee alt
1,427.4 km
Semi-major
7,712.8 km
B*
9.1818e-4
RAAN
145.0372°
Arg perigee
161.4229°
Mean anomaly
199.1141°
Rev number
22,188

§ Raw data

UNKNOWN1 81605U          26260.07629858  .00000117  00000+0  91818-3 0  99992 81605  56.4309 145.0372 0120215 161.4229 199.1141 12.81687789221881

JSON: /api/v1/satellites/81605 · /tle

For live sub-satellite position, see the globe view (requires WebGL).

§ Visibility from observer

Set your observer location to see the next 7 days of passes ≥ 10°. The values pass through the URL so the page stays shareable.

No JS? Fill the form by hand. The geolocation button needs JavaScript.